KD4UFD Weather Reports


time (UTC)temp
C
wind
direction
speed
KPH
gust
KPH
rain 1hr
cm
rain 24hr
cm
rain mn
cm
humidity
%
barometer
mb
20260505092809 10 140 0.0 0.0 0.00 0.00 0.00 86 1013.8
20260505092308 11 140 0.0 0.0 0.00 0.00 0.00 86 1013.8
20260505091804 11 140 0.0 0.0 0.00 0.00 0.00 86 1013.8
20260505091303 11 146 0.0 0.0 0.00 0.00 0.00 86 1013.9
20260505090800 11 162 0.0 0.0 0.00 0.00 0.00 86 1013.8
20260505090258 11 161 0.0 0.0 0.00 0.00 0.00 85 1013.8
20260505085755 11 161 0.0 0.0 0.00 0.00 0.00 85 1013.6
20260505085253 11 161 0.0 0.0 0.00 0.00 0.00 85 1013.7
20260505084750 11 165 0.0 0.0 0.00 0.00 0.00 85 1013.6
20260505084249 11 250 0.0 0.0 0.00 0.00 0.00 83 1013.5
20260505083746 11 287 0.0 0.0 0.00 0.00 0.00 82 1013.2
20260505083242 12 287 0.0 0.0 0.00 0.00 0.00 82 1013.3
20260505082739 12 287 0.0 0.0 0.00 0.00 0.00 82 1012.9
20260505082236 12 287 0.0 0.0 0.00 0.00 0.00 82 1013.1
20260505081732 12 289 0.0 0.0 0.00 0.00 0.00 82 1012.9
20260505081229 12 295 0.0 0.0 0.00 0.00 0.00 82 1013.0
20260505080726 12 295 0.0 0.0 0.00 0.00 0.00 82 1012.9
20260505080221 12 268 0.0 0.0 0.00 0.00 0.00 82 1012.9
20260505075717 11 248 0.0 0.0 0.00 0.00 0.00 82 1012.7
20260505075215 11 247 0.0 0.0 0.00 0.00 0.00 81 1012.5
20260505074712 11 247 0.0 0.0 0.00 0.00 0.00 80 1012.7
20260505074209 12 247 0.0 0.0 0.00 0.00 0.00 79 1012.7
20260505073707 12 247 0.0 0.0 0.00 0.00 0.00 79 1012.7
20260505073205 12 247 0.0 0.0 0.00 0.00 0.00 78 1013.0
20260505072700 13 247 0.0 0.0 0.00 0.00 0.00 76 1012.7
20260505072157 13 278 0.0 0.0 0.00 0.00 0.00 76 1012.9
20260505071652 13 279 0.0 0.0 0.00 0.00 0.00 75 1012.9
20260505071150 14 278 0.0 0.0 0.00 0.00 0.00 75 1013.0
20260505070647 14 257 0.0 0.0 0.00 0.00 0.00 74 1013.2
20260505070143 14 245 0.0 0.0 0.00 0.00 0.00 74 1012.9
20260505065639 15 245 0.0 0.0 0.00 0.00 0.00 73 1012.8
20260505065136 15 245 0.0 0.0 0.00 0.00 0.00 72 1012.9
20260505064633 15 245 0.0 0.0 0.00 0.00 0.00 71 1013.0
20260505064131 15 236 0.0 0.0 0.00 0.00 0.00 71 1012.9
20260505063628 15 338 1.6 1.6 0.00 0.00 0.00 71 1012.9
20260505063124 16 223 0.0 0.0 0.00 0.00 0.00 70 1012.9
20260505062621 16 233 0.0 1.6 0.00 0.00 0.00 70 1012.7
20260505062118 16 316 3.2 3.2 0.00 0.00 0.00 71 1012.7
20260505061615 15 328 1.6 3.2 0.00 0.00 0.00 71 1013.0
20260505061113 15 341 1.6 1.6 0.00 0.00 0.00 71 1012.7
20260505060610 15 330 0.0 0.0 0.00 0.00 0.00 71 1012.6
20260505060107 15 281 0.0 0.0 0.00 0.00 0.00 71 1012.9
20260505055602 16 265 0.0 0.0 0.00 0.00 0.00 70 1012.9
20260505055059 16 300 1.6 1.6 0.00 0.00 0.00 70 1012.8
20260505054557 15 315 0.0 0.0 0.00 0.00 0.00 71 1012.8
20260505054055 15 344 0.0 0.0 0.00 0.00 0.00 71 1012.6
20260505053552 15 217 0.0 0.0 0.00 0.00 0.00 71 1012.6
20260505053048 15 218 0.0 0.0 0.00 0.00 0.00 71 1012.7
20260505052545 15 249 0.0 0.0 0.00 0.00 0.00 71 1012.7
20260505052043 15 249 0.0 0.0 0.00 0.00 0.00 70 1012.6
20260505051539 15 237 0.0 0.0 0.00 0.00 0.00 70 1012.7
20260505051037 16 334 0.0 0.0 0.00 0.00 0.00 69 1012.5
20260505050535 16 307 1.6 1.6 0.00 0.00 0.00 69 1012.7
20260505041503 16 241 0.0 0.0 0.00 0.00 0.00 67 1012.6
20260505041000 16 318 0.0 0.0 0.00 0.00 0.00 68 1012.5
20260505040458 16 236 0.0 0.0 0.00 0.00 0.00 68 1012.6
20260505035954 16 235 0.0 0.0 0.00 0.00 0.00 68 1012.6
20260505035450 16 235 0.0 0.0 0.00 0.00 0.00 68 1012.7
20260505034948 16 234 0.0 0.0 0.00 0.00 0.00 68 1012.5
20260505034444 16 235 0.0 0.0 0.00 0.00 0.00 66 1012.6
20260505033941 17 320 0.0 0.0 0.00 0.00 0.00 66 1012.6
20260505033438 17 325 0.0 0.0 0.00 0.00 0.00 66 1012.4
20260505032936 17 335 0.0 0.0 0.00 0.00 0.00 65 1012.6
20260505032433 17 311 0.0 0.0 0.00 0.00 0.00 64 1012.5
20260505031929 17 233 0.0 0.0 0.00 0.00 0.00 64 1012.6
20260505031427 17 232 0.0 0.0 0.00 0.00 0.00 64 1012.6
20260505030923 17 234 0.0 0.0 0.00 0.00 0.00 63 1012.6
20260505030419 17 229 0.0 0.0 0.00 0.00 0.00 62 1012.7
20260505025915 17 227 0.0 0.0 0.00 0.00 0.00 62 1012.8
20260505025412 18 228 0.0 0.0 0.00 0.00 0.00 61 1012.9
20260505024911 18 274 0.0 0.0 0.00 0.00 0.00 60 1012.6
20260505024408 18 232 1.6 1.6 0.00 0.00 0.00 59 1012.8
20260505023905 18 221 0.0 0.0 0.00 0.00 0.00 60 1012.8
20260505023402 18 299 1.6 1.6 0.00 0.00 0.00 58 1012.7
20260505022859 19 218 0.0 1.6 0.00 0.00 0.00 60 1012.7
20260505022356 19 285 1.6 3.2 0.00 0.00 0.00 58 1012.7
20260505021854 19 251 1.6 3.2 0.00 0.00 0.00 58 1012.8
20260505021350 19 192 0.0 0.0 0.00 0.00 0.00 58 1012.8
20260505020846 20 225 0.0 1.6 0.00 0.00 0.00 58 1012.7
20260505020341 20 234 3.2 4.8 0.00 0.00 0.00 56 1012.6
20260505015839 20 218 1.6 1.6 0.00 0.00 0.00 57 1012.6
20260505015336 20 229 4.8 4.8 0.00 0.00 0.00 57 1012.5
20260505014833 20 221 8.0 11.3 0.00 0.00 0.00 58 1012.6
20260505014330 20 230 0.0 1.6 0.00 0.00 0.00 60 1012.7
20260505013827 19 250 4.8 8.0 0.00 0.00 0.00 61 1012.4
20260505013324 19 238 3.2 4.8 0.00 0.00 0.00 62 1012.5
20260505012822 18 229 4.8 8.0 0.00 0.00 0.00 64 1012.6
20260505012320 18 225 0.0 0.0 0.00 0.00 0.00 66 1012.5
20260505011815 18 227 0.0 0.0 0.00 0.00 0.00 65 1012.4
20260505011312 18 229 0.0 0.0 0.00 0.00 0.00 65 1012.4
20260505010808 18 234 0.0 0.0 0.00 0.00 0.00 65 1012.3
20260505010304 18 206 0.0 0.0 0.00 0.00 0.00 64 1012.3
20260505005801 19 185 0.0 0.0 0.00 0.00 0.00 63 1012.2
20260505005258 19 224 0.0 0.0 0.00 0.00 0.00 62 1012.0
20260505004755 20 238 0.0 0.0 0.00 0.00 0.00 61 1012.1
20260505004251 20 223 0.0 0.0 0.00 0.00 0.00 60 1012.0
20260505003749 20 223 0.0 0.0 0.00 0.00 0.00 59 1012.0
20260505003246 20 225 0.0 0.0 0.00 0.00 0.00 58 1012.2
20260505002742 20 221 1.6 3.2 0.00 0.00 0.00 58 1011.9
20260505002240 21 226 0.0 0.0 0.00 0.00 0.00 57 1011.9
20260505001737 21 212 3.2 3.2 0.00 0.00 0.00 55 1011.8
20260505001235 21 179 1.6 3.2 0.00 0.00 0.00 55 1012.0
20260505000731 21 205 0.0 1.6 0.00 0.00 0.00 56 1012.1
20260505000229 22 237 1.6 1.6 0.00 0.00 0.00 54 1011.7
20260504235725 22 240 4.8 8.0 0.00 0.00 0.00 53 1011.8
20260504235221 22 237 4.8 8.0 0.00 0.00 0.00 55 1011.9
20260504234719 22 208 1.6 1.6 0.00 0.00 0.00 56 1011.7
20260504234216 22 204 0.0 1.6 0.00 0.00 0.00 57 1012.0
20260504233712 22 225 4.8 4.8 0.00 0.00 0.00 55 1011.8
20260504233209 22 187 0.0 1.6 0.00 0.00 0.00 55 1011.8
20260504232706 22 204 1.6 1.6 0.00 0.00 0.00 54 1011.9
20260504232203 23 218 1.6 1.6 0.00 0.00 0.00 54 1011.7
20260504231659 23 224 1.6 3.2 0.00 0.00 0.00 53 1011.8
20260504231155 23 202 0.0 0.0 0.00 0.00 0.00 54 1011.7
20260504230652 23 220 1.6 1.6 0.00 0.00 0.00 53 1011.7
20260504230151 23 231 0.0 1.6 0.00 0.00 0.00 53 1011.8
20260504225649 23 216 4.8 4.8 0.00 0.00 0.00 52 1012.0
20260504225144 23 263 3.2 3.2 0.00 0.00 0.00 52 1012.1
20260504224642 23 246 1.6 1.6 0.00 0.00 0.00 53 1011.7
20260504224138 23 235 4.8 4.8 0.00 0.00 0.00 52 1011.9
20260504223636 23 233 4.8 8.0 0.00 0.00 0.00 52 1011.8
20260504223131 23 229 4.8 4.8 0.00 0.00 0.00 51 1012.1
20260504222628 23 226 3.2 3.2 0.00 0.00 0.00 50 1011.8
20260504222125 23 198 1.6 3.2 0.00 0.00 0.00 50 1011.9
20260504221623 23 226 3.2 3.2 0.00 0.00 0.00 50 1012.0
20260504221120 23 252 6.4 8.0 0.00 0.00 0.00 49 1011.9
20260504220616 23 197 4.8 4.8 0.00 0.00 0.00 49 1012.0
20260504220114 23 223 1.6 1.6 0.00 0.00 0.00 50 1012.0
20260504215609 24 308 4.8 8.0 0.00 0.00 0.00 48 1012.0
20260504215108 24 351 3.2 4.8 0.00 0.00 0.00 46 1012.0
20260504214603 25 255 4.8 4.8 0.00 0.00 0.00 47 1012.1
20260504214059 25 221 6.4 8.0 0.00 0.00 0.00 45 1011.9
20260504213556 25 232 6.4 8.0 0.00 0.00 0.00 45 1012.0
20260504213053 25 244 6.4 8.0 0.00 0.00 0.00 43 1011.9
20260504212549 25 218 6.4 9.7 0.00 0.00 0.00 43 1012.1
20260504212046 25 237 3.2 8.0 0.00 0.00 0.00 46 1012.1
20260504211543 25 285 8.0 11.3 0.00 0.00 0.00 44 1011.9
20260504211040 25 98 4.8 8.0 0.00 0.00 0.00 44 1012.1
20260504210537 25 241 1.6 3.2 0.00 0.00 0.00 51 1011.9
20260504210034 25 225 1.6 3.2 0.00 0.00 0.00 50 1012.2
20260504205532 25 219 3.2 4.8 0.00 0.00 0.00 50 1012.3
20260504205030 25 290 4.8 4.8 0.00 0.00 0.00 49 1012.1
20260504204527 25 230 6.4 8.0 0.00 0.00 0.00 49 1012.4
20260504204026 25 350 3.2 4.8 0.00 0.00 0.00 49 1012.4
20260504203524 25 239 8.0 11.3 0.00 0.00 0.00 47 1012.6
20260504203021 25 336 8.0 9.7 0.00 0.00 0.00 51 1012.3
20260504202516 25 222 3.2 3.2 0.00 0.00 0.00 49 1012.5
20260504202013 25 208 0.0 1.6 0.00 0.00 0.00 50 1012.4
20260504201510 25 177 4.8 9.7 0.00 0.00 0.00 50 1012.5
20260504201008 25 286 4.8 8.0 0.00 0.00 0.00 53 1012.7
20260504200504 25 209 1.6 3.2 0.00 0.00 0.00 53 1012.9
20260504200001 25 236 8.0 11.3 0.00 0.00 0.00 49 1012.6
20260504195457 25 159 1.6 1.6 0.00 0.00 0.00 52 1012.9
20260504194954 25 6 3.2 3.2 0.00 0.00 0.00 52 1012.9
20260504194450 25 260 4.8 8.0 0.00 0.00 0.00 50 1013.0
20260504193945 25 222 1.6 1.6 0.00 0.00 0.00 54 1013.0
20260504193443 25 214 3.2 3.2 0.00 0.00 0.00 53 1013.0
20260504192942 25 196 1.6 1.6 0.00 0.00 0.00 50 1013.0
20260504192438 25 240 4.8 8.0 0.00 0.00 0.00 51 1013.2
20260504191937 25 221 1.6 1.6 0.00 0.00 0.00 54 1013.5
20260504191435 23 284 3.2 4.8 0.00 0.00 0.00 54 1013.3
20260504190930 24 190 6.4 9.7 0.00 0.00 0.00 54 1013.5
20260504190426 24 210 3.2 3.2 0.00 0.00 0.00 54 1013.6
20260504185923 23 343 1.6 4.8 0.00 0.00 0.00 52 1013.8
20260504185420 23 242 1.6 3.2 0.00 0.00 0.00 53 1013.8
20260504184916 24 232 9.7 12.9 0.00 0.00 0.00 51 1013.7
20260504184412 24 220 1.6 3.2 0.00 0.00 0.00 54 1013.9
20260504183908 24 215 4.8 9.7 0.00 0.00 0.00 50 1014.1
20260504183406 23 233 4.8 4.8 0.00 0.00 0.00 51 1014.1
20260504182903 23 314 11.3 16.1 0.00 0.00 0.00 52 1014.2
20260504182400 23 335 1.6 3.2 0.00 0.00 0.00 50 1014.3
20260504181856 23 293 0.0 1.6 0.00 0.00 0.00 53 1014.3
20260504181354 23 228 4.8 8.0 0.00 0.00 0.00 55 1014.2
20260504180853 23 219 6.4 9.7 0.00 0.00 0.00 54 1014.4
20260504180351 23 221 3.2 3.2 0.00 0.00 0.00 54 1014.3
20260504175849 23 218 8.0 11.3 0.00 0.00 0.00 51 1014.6
20260504175345 23 190 4.8 4.8 0.00 0.00 0.00 53 1014.6
20260504174844 22 211 9.7 11.3 0.00 0.00 0.00 53 1014.6
20260504174341 22 225 6.4 9.7 0.00 0.00 0.00 53 1014.9
20260504173838 22 188 8.0 9.7 0.00 0.00 0.00 53 1014.7
20260504173335 22 252 4.8 4.8 0.00 0.00 0.00 54 1014.9
20260504172832 22 226 4.8 4.8 0.00 0.00 0.00 52 1014.7
20260504172328 22 250 4.8 4.8 0.00 0.00 0.00 56 1014.8
20260504171824 22 269 1.6 1.6 0.00 0.00 0.00 56 1014.9
20260504171321 22 276 3.2 3.2 0.00 0.00 0.00 53 1014.9
20260504170819 22 305 1.6 3.2 0.00 0.00 0.00 55 1015.1
20260504170315 21 227 3.2 4.8 0.00 0.00 0.00 63 1015.3
20260504160233 20 230 1.6 3.2 0.00 0.00 0.00 57 1016.1
20260504150659 18 232 3.2 3.2 0.00 0.00 0.00 59 1016.6
20260504150156 18 219 4.8 8.0 0.00 0.00 0.00 57 1016.9
20260504141125 16 239 4.8 4.8 0.00 0.00 0.00 66 1017.4
20260504140621 16 223 3.2 3.2 0.00 0.00 0.00 66 1017.5
20260504140117 15 224 3.2 3.2 0.00 0.00 0.00 68 1017.6
20260504130545 13 204 1.6 1.6 0.00 0.00 0.00 74 1017.4
20260504110433 5 231 0.0 0.0 0.00 0.00 0.00 96 1016.4
20260504100349 5 205 0.0 0.0 0.00 0.00 0.00 95 1016.4